Regional Weather Roundup
Issued by NWS Lake Charles, LA

Home | Current Version | Previous Version | Text Only | Print | Product List | Glossary On
Versions: 1 2 3 4 5 6 7 8 9 10 11 12 13 14 15 16 17 18 19 20 21 22 23 24 25 26 27 28 29 30 31 32 33 34 35 36 37 38 39 40 41 42 43 44 45 46 47 48 49 50
000
ASUS44 KLCH 160610
RWRLCH
REGIONAL WEATHER ROUNDUP
NATIONAL WEATHER SERVICE LAKE CHARLES LA
100 AM CDT TUE JUL 16 2019

Note: "fair" indicates few or no clouds below 12,000 feet with no
significant weather and/or obstructions to visibility.


ACROSS SOUTHEAST TEXAS

CITY           SKY/WX    TMP DP  RH WIND       PRES   REMARKS
BEAUMONT       FAIR      82  77  84 MISG      29.98R
BEAUMONT CITY  NOT AVBL
ORANGE         FAIR      82  81  97 S5        30.00S
JASPER         LGT RAIN  78  77  96 S5        30.01S
$$

ACROSS CENTRAL LOUISIANA

CITY           SKY/WX    TMP DP  RH WIND       PRES   REMARKS
LEESVILLE      CLOUDY    78  76  96 S10       29.99R
FULLERTON      CLOUDY    78  77  96 CALM      29.98R
ALEXANDRIA INT MOCLDY    75  75 100 SE5       29.98S
ESLER FIELD    CLOUDY    76  75  97 CALM      30.00S
DERIDDER       CLOUDY    77  76  95 SE5       30.01S FOG
OAKDALE        CLOUDY   N/A N/A N/A CALM      30.01R FOG
OPELOUSAS      MOCLDY    78  78  97 SE7       30.01F
$$

ACROSS SOUTHWEST AND SOUTH CENTRAL LOUISIANA

CITY           SKY/WX    TMP DP  RH WIND       PRES   REMARKS
DEQUINCY         N/A     78  76  96 SE3       30.00S
SULPHUR        FAIR      81  79  95 S5        30.00S
LAKE CHARLES   MOCLDY    80  79  96 SE5       30.00R
CHENNAULT INT  HVY RAIN  79  78  98 E8        30.01R
CAMERON PHI    NOT AVBL
GRAND CHENIER  NOT AVBL
JENNINGS       CLOUDY    80  78  95 S6        30.01S
LAFAYETTE      MOCLDY    82  80  94 S10       30.02S
NEW IBERIA       N/A    N/A N/A N/A MISG        N/A
ABBEVILLE      CLOUDY   N/A N/A N/A SE5       30.02F
PATTERSON      MOCLDY    80  79  96 S5        30.05S
SALT POINT     NOT AVBL
$$

SELECTED SITES ACROSS THE REGION

CITY           SKY/WX    TMP DP  RH WIND       PRES   REMARKS
HOUSTON BUSH   PTCLDY    82  76  81 S6        29.96S
HOUSTON HOBBY  FAIR      82  76  81 S8        29.97R
GALVESTON      FAIR      85  80  85 S15       29.99R
COLLEGE STAT   CLEAR     82  77  84 S10       29.95R
CONROE         CLEAR     78  76  93 SE6       29.97R
HUNTSVILLE     CLEAR     81  76  84 S7        29.96R
LUFKIN         CLOUDY    77  76  96 S7        29.96S
SHREVEPORT     PTCLDY    79  76  90 S9        29.94S
MONROE         MOCLDY    76  73  91 S7        29.99F
NATCHEZ MS     FAIR      77  75  93 S8        30.03S
BATON ROUGE    MOCLDY    80  78  94 SE10      30.03S
N.O. INTL ARPT MOCLDY    82  79  90 S7        30.06R
SLIDELL        MOCLDY    80  77  90 S5        30.06S
$$

MARINE REPORTS

STATION/POSITION TIME  SKY/WX   TEMP    WIND        PRES    VSBY
                                AIR SEA DIR/SP/G
                 (UTC)          (F)     (DEG/KT/KT) (MB)    (MI)
BUOY 30 S HIGH I 0550            85 84  180/ 14/ 17 1015.8R
WVE H/P(F/S)=  4/ 6

SEA RIM ST PARK  NOT AVBL
PORT ARTHUR      0524            82 84  180/  4/  7 1015.8
SABINE PASS N    0524            83 85  180/  9/ 13 1017.0
TEXAS POINT      0524            83 84  180/ 12/ 15 1014.9
CALCASIEU PASS   0524            83 82  200/ 14/ 16 1014.8
LK CHARLES BEACH 0524            80 83              1015.4
MARSH ISLAND     NOT AVBL
FRESH WATER LOCK NOT AVBL
AMERADA PASS     0524            81 82  150/  4/  7 1017.1
$$




USA.gov is the U.S. government's official web portal to all federal, state and local government web resources and services.